Regional Weather Roundup
Issued by NWS

Home | Current Version | Previous Version | Text Only | Print | Product List | Glossary On
Versions: 1 2 3 4 5 6 7 8 9 10 11 12 13 14 15 16 17 18 19 20 21 22 23 24 25 26 27 28 29 30 31 32 33 34 35 36 37 38 39 40 41 42 43 44 45 46 47 48 49 50
000
ASCA42 TJSJ 230911
RWRPR
PUERTO RICO/U.S. VIRGIN ISLANDS HOURLY WEATHER ROUNDUP
NATIONAL WEATHER SERVICE SAN JUAN PR
500 AM AST SUN NOV 23 2014

PRZ001-004-231000-
PUERTO RICO

CITY           SKY/WX    TMP DP  RH WIND       PRES   REMARKS
SAN JUAN LMM   PTCLDY    75  73  94 CALM      29.97S
AGUADILLA      CLEAR     75  70  83 E7        29.99
CEIBA          CLEAR     81  72  74 E10       30.00S
$$

PRZ006-007-231000-
U.S. VIRGIN ISLANDS

CITY           SKY/WX    TMP DP  RH WIND       PRES   REMARKS
CHARLOTTE AMA  PTCLDY    79  72  78 E10       29.97
$$

HOURLY WEATHER ROUNDUP FOR THE NEWS MEDIA

CITY           SKY/WX    TMP DP  RH WIND       PRES   REMARKS
MIAMI          MOCLDY    77  72  84 SE12      30.01F
ORLANDO        CLOUDY    72  70  93 SE16G23   30.01F
NEW YORK       CLOUDY    43  27  53 SW10      30.19F
NEWARK         CLOUDY    42  23  46 SW8       30.18F
CHICAGO        CLOUDY    51  46  83 S15       29.79F
HARTFORD       CLOUDY    46  29  51 SW10      30.12R
BOSTON         CLOUDY    45  25  45 SW13      30.08S
DALLAS         CLOUDY    56  55  97 S3        29.63S FOG
PHILADELPHIA   MOCLDY    40  24  53 S7        30.21F


USA.gov is the U.S. government's official web portal to all federal, state and local government web resources and services.